| time (UTC) | temp F | wind direction | speed knots | gust knots | rain 1hr in | rain 24hr in | rain mn in | humidity % | barometer mb |
| 20260506180034 | 72 | 22 | 0.0 | 0.0 | 0.00 | 0.00 | 0.00 | 49 | 990.7 |
| 20260506175534 | 72 | 0 | 0.0 | 0.0 | 0.00 | 0.00 | 0.00 | 49 | 990.5 |
| 20260506175034 | 73 | 0 | 0.0 | 0.0 | 0.00 | 0.00 | 0.00 | 48 | 990.6 |
| 20260506174534 | 73 | 0 | 0.0 | 0.0 | 0.00 | 0.00 | 0.00 | 47 | 990.5 |
| 20260506174034 | 74 | 0 | 0.0 | 0.9 | 0.00 | 0.00 | 0.00 | 46 | 990.5 |
| 20260506173533 | 75 | 0 | 0.9 | 0.9 | 0.00 | 0.00 | 0.00 | 45 | 990.4 |
| 20260506173034 | 77 | 0 | 0.0 | 0.0 | 0.00 | 0.00 | 0.00 | 43 | 990.5 |
| 20260506172700 | 79 | 0 | 0.0 | 0.0 | 0.00 | 0.00 | 0.00 | 42 | 990.5 |
| 20260506172532 | 79 | 0 | 0.0 | 0.0 | 0.00 | 0.00 | 0.00 | 42 | 990.5 |
| 20260506172032 | 79 | 22 | 0.0 | 0.0 | 0.00 | 0.00 | 0.00 | 41 | 990.5 |
| 20260506171532 | 78 | 22 | 0.0 | 0.0 | 0.00 | 0.00 | 0.00 | 42 | 990.3 |
| 20260506171032 | 77 | 22 | 0.0 | 0.0 | 0.00 | 0.00 | 0.00 | 43 | 990.3 |
| 20260506170531 | 75 | 22 | 0.0 | 0.0 | 0.00 | 0.00 | 0.00 | 45 | 990.3 |
| 20260506170031 | 74 | 22 | 0.0 | 0.0 | 0.00 | 0.00 | 0.00 | 45 | 990.2 |
| 20260506165531 | 75 | 22 | 0.0 | 0.0 | 0.00 | 0.00 | 0.00 | 45 | 990.3 |
| 20260506165030 | 75 | 22 | 0.0 | 0.0 | 0.00 | 0.00 | 0.00 | 45 | 990.3 |
| 20260506164533 | 75 | 0 | 0.0 | 0.0 | 0.00 | 0.00 | 0.00 | 44 | 990.3 |
| 20260506163529 | 76 | 22 | 0.0 | 0.0 | 0.00 | 0.00 | 0.00 | 43 | 990.1 |
| 20260506163029 | 77 | 22 | 0.0 | 0.0 | 0.00 | 0.00 | 0.00 | 43 | 990.0 |
| 20260506162529 | 75 | 22 | 0.0 | 0.0 | 0.00 | 0.00 | 0.00 | 44 | 990.1 |
| 20260506162029 | 76 | 22 | 0.0 | 0.0 | 0.00 | 0.00 | 0.00 | 42 | 990.1 |
| 20260506161528 | 77 | 22 | 0.0 | 0.0 | 0.00 | 0.00 | 0.00 | 41 | 990.0 |
| 20260506161028 | 78 | 0 | 0.0 | 0.0 | 0.00 | 0.00 | 0.00 | 40 | 990.0 |
| 20260506160528 | 81 | 22 | 0.0 | 0.0 | 0.00 | 0.00 | 0.00 | 38 | 990.1 |
| 20260506160027 | 85 | 22 | 0.0 | 0.0 | 0.00 | 0.00 | 0.00 | 37 | 990.2 |
| 20260506155528 | 85 | 22 | 0.0 | 0.0 | 0.00 | 0.00 | 0.00 | 37 | 990.0 |
| 20260506155027 | 82 | 22 | 0.0 | 0.0 | 0.00 | 0.00 | 0.00 | 38 | 990.3 |
| 20260506154527 | 79 | 22 | 0.0 | 0.9 | 0.00 | 0.00 | 0.00 | 40 | 990.3 |
| 20260506154026 | 79 | 22 | 0.9 | 0.9 | 0.00 | 0.00 | 0.00 | 41 | 990.2 |
| 20260506153526 | 77 | 22 | 0.0 | 0.9 | 0.00 | 0.00 | 0.00 | 43 | 990.3 |
| 20260506153026 | 76 | 22 | 0.9 | 0.9 | 0.00 | 0.00 | 0.00 | 44 | 990.3 |
| 20260506152525 | 76 | 0 | 0.0 | 1.7 | 0.00 | 0.00 | 0.00 | 44 | 990.3 |
| 20260506152031 | 76 | 22 | 0.0 | 2.6 | 0.00 | 0.00 | 0.00 | 43 | 990.3 |
| 20260506152025 | 76 | 22 | 0.0 | 2.6 | 0.00 | 0.00 | 0.00 | 43 | 990.3 |
| 20260506151525 | 76 | 0 | 2.6 | 2.6 | 0.00 | 0.00 | 0.00 | 43 | 990.4 |
| 20260506151025 | 76 | 22 | 0.0 | 0.0 | 0.00 | 0.00 | 0.00 | 43 | 990.2 |
| 20260506150525 | 76 | 22 | 0.0 | 0.0 | 0.00 | 0.00 | 0.00 | 43 | 990.3 |
| 20260506150024 | 76 | 45 | 0.0 | 1.7 | 0.00 | 0.00 | 0.00 | 42 | 990.4 |
| 20260506145524 | 77 | 180 | 0.0 | 0.9 | 0.00 | 0.00 | 0.00 | 42 | 990.5 |
| 20260506145023 | 77 | 22 | 0.9 | 0.9 | 0.00 | 0.00 | 0.00 | 42 | 990.6 |
| 20260506144523 | 77 | 0 | 0.0 | 3.5 | 0.00 | 0.00 | 0.00 | 41 | 990.4 |
| 20260506144023 | 78 | 22 | 3.5 | 3.5 | 0.00 | 0.00 | 0.00 | 41 | 990.4 |
| 20260506143524 | 78 | 22 | 0.0 | 0.0 | 0.00 | 0.00 | 0.00 | 41 | 990.3 |
| 20260506143022 | 78 | 202 | 0.0 | 0.0 | 0.00 | 0.00 | 0.00 | 41 | 990.3 |
| 20260506142522 | 77 | 202 | 0.0 | 0.0 | 0.00 | 0.00 | 0.00 | 41 | 990.1 |
| 20260506142022 | 77 | 0 | 0.0 | 0.0 | 0.00 | 0.00 | 0.00 | 41 | 990.2 |
| 20260506141521 | 77 | 22 | 0.0 | 0.0 | 0.00 | 0.00 | 0.00 | 41 | 990.3 |
| 20260506141021 | 77 | 22 | 0.0 | 0.0 | 0.00 | 0.00 | 0.00 | 40 | 990.3 |
| 20260506140521 | 77 | 157 | 0.0 | 0.0 | 0.00 | 0.00 | 0.00 | 40 | 990.2 |
| 20260506140020 | 77 | 180 | 0.0 | 0.0 | 0.00 | 0.00 | 0.00 | 40 | 990.3 |
| 20260506135520 | 77 | 180 | 0.0 | 0.0 | 0.00 | 0.00 | 0.00 | 40 | 990.3 |
| 20260506135020 | 78 | 90 | 0.0 | 0.0 | 0.00 | 0.00 | 0.00 | 40 | 990.2 |
| 20260506134520 | 78 | 45 | 0.0 | 0.0 | 0.00 | 0.00 | 0.00 | 41 | 990.2 |
| 20260506134019 | 77 | 112 | 0.0 | 0.0 | 0.00 | 0.00 | 0.00 | 41 | 990.2 |
| 20260506133521 | 77 | 180 | 0.0 | 0.0 | 0.00 | 0.00 | 0.00 | 41 | 990.3 |
| 20260506133019 | 77 | 157 | 0.0 | 1.7 | 0.00 | 0.00 | 0.00 | 41 | 990.2 |
| 20260506132518 | 77 | 112 | 0.0 | 0.0 | 0.00 | 0.00 | 0.00 | 41 | 990.1 |
| 20260506132018 | 78 | 157 | 0.0 | 0.0 | 0.00 | 0.00 | 0.00 | 41 | 990.0 |
| 20260506131518 | 78 | 202 | 0.0 | 0.0 | 0.00 | 0.00 | 0.00 | 41 | 990.1 |
| 20260506131018 | 78 | 22 | 0.0 | 0.0 | 0.00 | 0.00 | 0.00 | 41 | 990.0 |
| 20260506130517 | 78 | 112 | 0.0 | 0.0 | 0.00 | 0.00 | 0.00 | 41 | 990.2 |
| 20260506130017 | 78 | 180 | 0.0 | 0.0 | 0.00 | 0.00 | 0.00 | 41 | 990.1 |
| 20260506125517 | 77 | 180 | 0.0 | 0.0 | 0.00 | 0.00 | 0.00 | 42 | 990.3 |
| 20260506125017 | 78 | 135 | 0.0 | 0.0 | 0.00 | 0.00 | 0.00 | 42 | 990.3 |
| 20260506124516 | 78 | 247 | 0.0 | 0.0 | 0.00 | 0.00 | 0.00 | 42 | 990.3 |
| 20260506124016 | 77 | 247 | 0.0 | 0.0 | 0.00 | 0.00 | 0.00 | 43 | 990.3 |
| 20260506123516 | 77 | 22 | 0.0 | 0.0 | 0.00 | 0.00 | 0.00 | 43 | 990.3 |
| 20260506123015 | 76 | 112 | 0.0 | 0.0 | 0.00 | 0.00 | 0.00 | 43 | 990.4 |
| 20260506122515 | 75 | 180 | 0.0 | 0.0 | 0.00 | 0.00 | 0.00 | 44 | 990.5 |
| 20260506120143 | 77 | 22 | 0.0 | 0.0 | 0.00 | 0.00 | 0.00 | 42 | 990.3 |
| 20260506115642 | 77 | 90 | 0.0 | 0.0 | 0.00 | 0.00 | 0.00 | 42 | 990.1 |
| 20260506115142 | 77 | 157 | 0.0 | 0.0 | 0.00 | 0.00 | 0.00 | 42 | 990.1 |
| 20260506114642 | 78 | 135 | 0.0 | 0.0 | 0.00 | 0.00 | 0.00 | 41 | 990.2 |
| 20260506114141 | 78 | 112 | 0.0 | 0.0 | 0.00 | 0.00 | 0.00 | 41 | 990.3 |
| 20260506113643 | 78 | 180 | 0.0 | 0.9 | 0.00 | 0.00 | 0.00 | 41 | 990.2 |
| 20260506113141 | 78 | 202 | 0.9 | 1.7 | 0.00 | 0.00 | 0.00 | 41 | 990.0 |
| 20260506112640 | 78 | 202 | 1.7 | 1.7 | 0.00 | 0.00 | 0.00 | 41 | 990.0 |
| 20260506112353 | 78 | 202 | 0.0 | 0.0 | 0.00 | 0.00 | 0.00 | 41 | 990.1 |
| 20260506112140 | 78 | 202 | 0.0 | 0.0 | 0.00 | 0.00 | 0.00 | 41 | 990.1 |
| 20260506111640 | 77 | 180 | 0.0 | 0.9 | 0.00 | 0.00 | 0.00 | 41 | 990.3 |
| 20260506111140 | 78 | 112 | 0.9 | 0.9 | 0.00 | 0.00 | 0.00 | 41 | 990.3 |
| 20260506110639 | 77 | 112 | 0.0 | 0.0 | 0.00 | 0.00 | 0.00 | 41 | 990.2 |
| 20260506110139 | 77 | 135 | 0.0 | 0.0 | 0.00 | 0.00 | 0.00 | 41 | 990.0 |
| 20260506105639 | 78 | 202 | 0.0 | 0.0 | 0.00 | 0.00 | 0.00 | 41 | 990.2 |
| 20260506105138 | 78 | 180 | 0.0 | 0.0 | 0.00 | 0.00 | 0.00 | 41 | 990.2 |
| 20260506104638 | 77 | 202 | 0.0 | 0.0 | 0.00 | 0.00 | 0.00 | 41 | 990.2 |
| 20260506104138 | 77 | 180 | 0.0 | 0.9 | 0.00 | 0.00 | 0.00 | 41 | 990.2 |
| 20260506103638 | 76 | 202 | 0.9 | 0.9 | 0.00 | 0.00 | 0.00 | 42 | 990.3 |
| 20260506103137 | 76 | 45 | 0.0 | 0.9 | 0.00 | 0.00 | 0.00 | 42 | 990.3 |
| 20260506102637 | 76 | 67 | 0.0 | 0.0 | 0.00 | 0.00 | 0.00 | 42 | 990.3 |
| 20260506102137 | 76 | 90 | 0.0 | 0.9 | 0.00 | 0.00 | 0.00 | 43 | 990.2 |
| 20260506101636 | 75 | 90 | 0.0 | 0.0 | 0.00 | 0.00 | 0.00 | 43 | 990.2 |
| 20260506101139 | 75 | 135 | 0.0 | 0.0 | 0.00 | 0.00 | 0.00 | 43 | 990.0 |
| 20260506100636 | 74 | 90 | 0.0 | 0.9 | 0.00 | 0.00 | 0.00 | 43 | 990.1 |
| 20260506100136 | 74 | 90 | 0.9 | 0.9 | 0.00 | 0.00 | 0.00 | 43 | 990.0 |
| 20260506095635 | 74 | 22 | 0.0 | 0.9 | 0.00 | 0.00 | 0.00 | 43 | 990.2 |
| 20260506095135 | 74 | 67 | 0.9 | 0.9 | 0.00 | 0.00 | 0.00 | 42 | 990.4 |
| 20260506094635 | 74 | 202 | 0.0 | 0.9 | 0.00 | 0.00 | 0.00 | 42 | 990.5 |
| 20260506094224 | 75 | 90 | 0.0 | 0.0 | 0.00 | 0.00 | 0.00 | 42 | 990.5 |
| 20260506094134 | 75 | 90 | 0.0 | 0.0 | 0.00 | 0.00 | 0.00 | 42 | 990.5 |
| 20260506093634 | 75 | 90 | 0.0 | 0.0 | 0.00 | 0.00 | 0.00 | 41 | 990.4 |
| 20260506093135 | 75 | 67 | 0.0 | 0.0 | 0.00 | 0.00 | 0.00 | 40 | 990.4 |
| 20260506092634 | 75 | 202 | 0.0 | 0.0 | 0.00 | 0.00 | 0.00 | 40 | 990.5 |
| 20260506092133 | 75 | 180 | 0.0 | 1.7 | 0.00 | 0.00 | 0.00 | 40 | 990.4 |
| 20260506091633 | 75 | 202 | 0.0 | 0.0 | 0.00 | 0.00 | 0.00 | 40 | 990.2 |
| 20260506091133 | 75 | 202 | 0.0 | 0.0 | 0.00 | 0.00 | 0.00 | 40 | 990.4 |
| 20260506090632 | 75 | 202 | 0.0 | 0.0 | 0.00 | 0.00 | 0.00 | 39 | 990.3 |
| 20260506090132 | 75 | 225 | 0.0 | 0.0 | 0.00 | 0.00 | 0.00 | 39 | 990.3 |
| 20260506085632 | 75 | 180 | 0.0 | 0.0 | 0.00 | 0.00 | 0.00 | 39 | 990.2 |
| 20260506085132 | 75 | 45 | 0.0 | 0.0 | 0.00 | 0.00 | 0.00 | 39 | 990.1 |
| 20260506084631 | 75 | 112 | 0.0 | 0.0 | 0.00 | 0.00 | 0.00 | 39 | 989.9 |
| 20260506084131 | 75 | 157 | 0.0 | 0.0 | 0.00 | 0.00 | 0.00 | 39 | 990.0 |
| 20260506083631 | 75 | 157 | 0.0 | 0.0 | 0.00 | 0.00 | 0.00 | 39 | 990.0 |
| 20260506083132 | 75 | 180 | 0.0 | 0.0 | 0.00 | 0.00 | 0.00 | 39 | 989.9 |
| 20260506082630 | 75 | 90 | 0.0 | 0.0 | 0.00 | 0.00 | 0.00 | 40 | 989.8 |
| 20260506081629 | 75 | 90 | 0.0 | 0.0 | 0.00 | 0.00 | 0.00 | 42 | 990.0 |
| 20260506081129 | 73 | 90 | 0.0 | 0.0 | 0.00 | 0.00 | 0.00 | 42 | 989.8 |
| 20260506080629 | 73 | 90 | 0.0 | 0.0 | 0.00 | 0.00 | 0.00 | 43 | 989.8 |
| 20260506080128 | 73 | 90 | 0.0 | 0.0 | 0.00 | 0.00 | 0.00 | 44 | 989.9 |
| 20260506073127 | 70 | 67 | 0.0 | 0.0 | 0.00 | 0.00 | 0.00 | 47 | 990.3 |
| 20260506072627 | 70 | 112 | 0.0 | 0.0 | 0.00 | 0.00 | 0.00 | 47 | 990.4 |
| 20260506072126 | 70 | 112 | 0.0 | 0.0 | 0.00 | 0.00 | 0.00 | 47 | 990.4 |
| 20260506071626 | 70 | 112 | 0.0 | 0.0 | 0.00 | 0.00 | 0.00 | 48 | 990.4 |
| 20260506071126 | 69 | 112 | 0.0 | 0.0 | 0.00 | 0.00 | 0.00 | 48 | 990.5 |
| 20260506070625 | 69 | 112 | 0.0 | 0.0 | 0.00 | 0.00 | 0.00 | 48 | 990.2 |
| 20260506070125 | 69 | 112 | 0.0 | 0.0 | 0.00 | 0.00 | 0.00 | 48 | 990.4 |
| 20260506062123 | 70 | 67 | 0.0 | 0.0 | 0.00 | 0.00 | 0.00 | 50 | 990.7 |
| 20260506061622 | 72 | 67 | 0.0 | 0.0 | 0.00 | 0.00 | 0.00 | 48 | 990.7 |
| 20260506061127 | 73 | 67 | 0.0 | 0.0 | 0.00 | 0.00 | 0.00 | 49 | 990.9 |
| 20260506061122 | 73 | 67 | 0.0 | 0.0 | 0.00 | 0.00 | 0.00 | 49 | 990.9 |
| 20260506060622 | 73 | 67 | 0.0 | 0.0 | 0.00 | 0.00 | 0.00 | 51 | 990.7 |
| 20260506060122 | 72 | 67 | 0.0 | 0.0 | 0.00 | 0.00 | 0.00 | 52 | 990.7 |
| 20260506051119 | 67 | 90 | 0.0 | 0.0 | 0.00 | 0.00 | 0.00 | 64 | 991.1 |
| 20260506050619 | 66 | 135 | 0.0 | 0.0 | 0.00 | 0.00 | 0.00 | 67 | 991.3 |
| 20260506050118 | 65 | 157 | 0.0 | 0.0 | 0.00 | 0.00 | 0.00 | 69 | 991.1 |
| 20260506045124 | 62 | 180 | 0.0 | 0.0 | 0.00 | 0.00 | 0.00 | 73 | 799.0 |
| 20260506045118 | 62 | 180 | 0.0 | 0.0 | 0.00 | 0.00 | 0.00 | 73 | 990.7 |
| 20260506044617 | 61 | 180 | 0.0 | 0.0 | 0.00 | 0.00 | 0.00 | 74 | 990.6 |
| 20260506044117 | 60 | 180 | 0.0 | 0.0 | 0.00 | 0.00 | 0.00 | 76 | 990.6 |
| 20260506043617 | 59 | 180 | 0.0 | 0.0 | 0.00 | 0.00 | 0.00 | 76 | 990.8 |
| 20260506043116 | 59 | 180 | 0.0 | 1.7 | 0.00 | 0.00 | 0.00 | 77 | 990.8 |
| 20260506042618 | 58 | 180 | 0.0 | 0.9 | 0.00 | 0.00 | 0.00 | 78 | 991.0 |
| 20260506042116 | 58 | 180 | 0.9 | 0.9 | 0.00 | 0.00 | 0.00 | 81 | 990.8 |
| 20260506041115 | 55 | 157 | 0.0 | 0.0 | 0.00 | 0.00 | 0.00 | 83 | 991.1 |
| 20260506040615 | 54 | 180 | 0.0 | 0.0 | 0.00 | 0.00 | 0.00 | 82 | 991.4 |
| 20260506040115 | 54 | 180 | 0.0 | 0.0 | 0.00 | 0.00 | 0.00 | 82 | 991.4 |
| 20260506035614 | 54 | 180 | 0.0 | 0.0 | 0.00 | 0.00 | 0.00 | 82 | 991.2 |
| 20260506035114 | 54 | 180 | 0.0 | 0.0 | 0.00 | 0.00 | 0.00 | 82 | 991.3 |
| 20260506034614 | 54 | 180 | 0.0 | 0.0 | 0.00 | 0.00 | 0.00 | 82 | 991.3 |
| 20260506034113 | 54 | 180 | 0.0 | 0.0 | 0.00 | 0.00 | 0.00 | 82 | 991.3 |
| 20260506033613 | 53 | 180 | 0.0 | 0.0 | 0.00 | 0.00 | 0.00 | 82 | 991.3 |
| 20260506033113 | 53 | 180 | 0.0 | 0.0 | 0.00 | 0.00 | 0.00 | 83 | 991.3 |
| 20260506032612 | 53 | 180 | 0.0 | 0.0 | 0.00 | 0.00 | 0.00 | 83 | 991.2 |
| 20260506032112 | 52 | 180 | 0.0 | 0.0 | 0.00 | 0.00 | 0.00 | 83 | 991.3 |
| 20260506031613 | 52 | 180 | 0.0 | 0.0 | 0.00 | 0.00 | 0.00 | 83 | 991.4 |
| 20260506031112 | 52 | 180 | 0.0 | 0.0 | 0.00 | 0.00 | 0.00 | 82 | 991.4 |
| 20260506030611 | 52 | 135 | 0.0 | 0.0 | 0.00 | 0.00 | 0.00 | 82 | 991.4 |
| 20260506030111 | 51 | 45 | 0.0 | 0.0 | 0.00 | 0.00 | 0.00 | 81 | 991.3 |
| 20260506025611 | 51 | 45 | 0.0 | 0.0 | 0.00 | 0.00 | 0.00 | 81 | 991.2 |
| 20260506025110 | 52 | 157 | 0.0 | 0.0 | 0.00 | 0.00 | 0.00 | 81 | 991.3 |
| 20260506024610 | 52 | 90 | 0.0 | 0.0 | 0.00 | 0.00 | 0.00 | 81 | 991.3 |
| 20260506024110 | 52 | 180 | 0.0 | 0.0 | 0.00 | 0.00 | 0.00 | 81 | 991.3 |
| 20260506023610 | 52 | 180 | 0.0 | 0.0 | 0.00 | 0.00 | 0.00 | 81 | 991.4 |
| 20260506023109 | 52 | 180 | 0.0 | 0.0 | 0.00 | 0.00 | 0.00 | 81 | 991.4 |
| 20260506022610 | 52 | 180 | 0.0 | 0.0 | 0.00 | 0.00 | 0.00 | 81 | 991.4 |
| 20260506022109 | 52 | 180 | 0.0 | 0.0 | 0.00 | 0.00 | 0.00 | 81 | 991.4 |
| 20260506021608 | 52 | 180 | 0.0 | 0.0 | 0.00 | 0.00 | 0.00 | 81 | 991.6 |
| 20260506021108 | 52 | 180 | 0.0 | 0.0 | 0.00 | 0.00 | 0.00 | 81 | 991.5 |
| 20260506020608 | 52 | 180 | 0.0 | 0.0 | 0.00 | 0.00 | 0.00 | 80 | 991.7 |
| 20260506020107 | 52 | 180 | 0.0 | 0.0 | 0.00 | 0.00 | 0.00 | 80 | 991.7 |
| 20260506015607 | 52 | 180 | 0.0 | 0.0 | 0.00 | 0.00 | 0.00 | 80 | 991.6 |
| 20260506015107 | 53 | 180 | 0.0 | 0.0 | 0.00 | 0.00 | 0.00 | 80 | 991.6 |
| 20260506014607 | 53 | 180 | 0.0 | 0.0 | 0.00 | 0.00 | 0.00 | 80 | 991.6 |
| 20260506014106 | 53 | 180 | 0.0 | 0.0 | 0.00 | 0.00 | 0.00 | 80 | 991.6 |
| 20260506013606 | 53 | 180 | 0.0 | 0.0 | 0.00 | 0.00 | 0.00 | 80 | 991.5 |
| 20260506013106 | 53 | 180 | 0.0 | 0.0 | 0.00 | 0.00 | 0.00 | 80 | 991.7 |
| 20260506012605 | 53 | 157 | 0.0 | 0.0 | 0.00 | 0.00 | 0.00 | 80 | 991.8 |
| 20260506012105 | 53 | 157 | 0.0 | 0.0 | 0.00 | 0.00 | 0.00 | 80 | 991.7 |
| 20260506011605 | 53 | 157 | 0.0 | 0.0 | 0.00 | 0.00 | 0.00 | 80 | 991.8 |
| 20260506011105 | 54 | 180 | 0.0 | 0.0 | 0.00 | 0.00 | 0.00 | 80 | 991.6 |
| 20260506010604 | 54 | 180 | 0.0 | 0.0 | 0.00 | 0.00 | 0.00 | 80 | 991.6 |
| 20260506010104 | 54 | 157 | 0.0 | 0.0 | 0.00 | 0.00 | 0.00 | 80 | 991.7 |
| 20260506005604 | 54 | 157 | 0.0 | 0.0 | 0.00 | 0.00 | 0.00 | 80 | 991.6 |
| 20260506005103 | 55 | 67 | 0.0 | 0.0 | 0.00 | 0.00 | 0.00 | 80 | 991.8 |
| 20260506004604 | 55 | 112 | 0.0 | 0.0 | 0.00 | 0.00 | 0.00 | 80 | 991.7 |
| 20260506004103 | 55 | 337 | 0.0 | 0.0 | 0.00 | 0.00 | 0.00 | 80 | 991.7 |
| 20260506001104 | 57 | 157 | 0.0 | 0.0 | 0.00 | 0.00 | 0.00 | 79 | 991.3 |
| 20260506000603 | 57 | 180 | 0.0 | 0.0 | 0.00 | 0.00 | 0.00 | 79 | 991.4 |
| 20260505235602 | 57 | 180 | 0.0 | 0.0 | 0.00 | 0.00 | 0.00 | 78 | 991.4 |
| 20260505235102 | 57 | 180 | 0.0 | 0.0 | 0.00 | 0.00 | 0.00 | 78 | 991.4 |
| 20260505234602 | 58 | 180 | 0.0 | 0.0 | 0.00 | 0.00 | 0.00 | 78 | 991.4 |
| 20260505234104 | 58 | 180 | 0.0 | 0.0 | 0.00 | 0.00 | 0.00 | 77 | 991.4 |
| 20260505233601 | 58 | 180 | 0.0 | 0.0 | 0.00 | 0.00 | 0.00 | 78 | 991.4 |
| 20260505233101 | 58 | 180 | 0.0 | 0.0 | 0.00 | 0.00 | 0.00 | 77 | 991.5 |
| 20260505232601 | 58 | 180 | 0.0 | 0.0 | 0.00 | 0.00 | 0.00 | 77 | 991.5 |
| 20260505232100 | 58 | 180 | 0.0 | 0.0 | 0.00 | 0.00 | 0.00 | 77 | 991.4 |
| 20260505231600 | 58 | 180 | 0.0 | 0.0 | 0.00 | 0.00 | 0.00 | 78 | 991.2 |
| 20260505231101 | 58 | 180 | 0.0 | 0.0 | 0.00 | 0.00 | 0.00 | 77 | 991.4 |
| 20260505230559 | 59 | 180 | 0.0 | 0.0 | 0.00 | 0.00 | 0.00 | 77 | 991.3 |
| 20260505230059 | 59 | 157 | 0.0 | 0.0 | 0.00 | 0.00 | 0.00 | 75 | 991.3 |
| 20260505225559 | 59 | 135 | 0.0 | 0.0 | 0.00 | 0.00 | 0.00 | 75 | 991.1 |
| 20260505225058 | 59 | 202 | 0.0 | 0.0 | 0.00 | 0.00 | 0.00 | 75 | 991.3 |
| 20260505224558 | 60 | 180 | 0.0 | 0.0 | 0.00 | 0.00 | 0.00 | 75 | 991.1 |
| 20260505224058 | 60 | 180 | 0.0 | 0.0 | 0.00 | 0.00 | 0.00 | 73 | 991.2 |
| 20260505223557 | 60 | 135 | 0.0 | 0.0 | 0.00 | 0.00 | 0.00 | 73 | 991.1 |
| 20260505223057 | 60 | 180 | 0.0 | 0.0 | 0.00 | 0.00 | 0.00 | 72 | 991.2 |
| 20260505222557 | 61 | 157 | 0.0 | 0.0 | 0.00 | 0.00 | 0.00 | 72 | 991.2 |
| 20260505222057 | 61 | 180 | 0.0 | 0.9 | 0.00 | 0.00 | 0.00 | 72 | 991.2 |
| 20260505221556 | 62 | 180 | 0.9 | 0.9 | 0.00 | 0.00 | 0.00 | 72 | 991.2 |
| 20260505221056 | 62 | 135 | 0.9 | 0.9 | 0.00 | 0.00 | 0.00 | 72 | 991.2 |
| 20260505220556 | 62 | 180 | 0.0 | 0.0 | 0.00 | 0.00 | 0.00 | 71 | 991.2 |
| 20260505220055 | 63 | 157 | 0.0 | 0.0 | 0.00 | 0.00 | 0.00 | 71 | 991.2 |
| 20260505215556 | 63 | 135 | 0.0 | 5.2 | 0.00 | 0.00 | 0.00 | 71 | 991.3 |
| 20260505215055 | 63 | 180 | 5.2 | 5.2 | 0.00 | 0.00 | 0.00 | 73 | 991.2 |
| 20260505214555 | 63 | 202 | 0.0 | 0.0 | 0.00 | 0.00 | 0.00 | 72 | 991.3 |
| 20260505214054 | 63 | 180 | 0.0 | 0.9 | 0.00 | 0.00 | 0.00 | 69 | 991.2 |
| 20260505213554 | 63 | 135 | 0.9 | 0.9 | 0.00 | 0.00 | 0.00 | 69 | 991.2 |
| 20260505213059 | 60 | 157 | 0.0 | 0.0 | 0.00 | 0.00 | 0.00 | 68 | 991.2 |
| 20260505213054 | 63 | 157 | 0.0 | 0.0 | 0.00 | 0.00 | 0.00 | 68 | 991.2 |
| 20260505212553 | 64 | 180 | 0.0 | 0.9 | 0.00 | 0.00 | 0.00 | 70 | 991.1 |
| 20260505212053 | 64 | 180 | 0.9 | 0.9 | 0.00 | 0.00 | 0.00 | 68 | 991.1 |
| 20260505211553 | 64 | 180 | 0.0 | 3.5 | 0.00 | 0.00 | 0.00 | 67 | 991.2 |
| 20260505211053 | 64 | 180 | 3.5 | 3.5 | 0.00 | 0.00 | 0.00 | 66 | 991.1 |
| 20260505210552 | 64 | 135 | 0.0 | 0.9 | 0.00 | 0.00 | 0.00 | 66 | 991.1 |
| 20260505210052 | 65 | 180 | 0.9 | 0.9 | 0.00 | 0.00 | 0.00 | 63 | 991.3 |
| 20260505205552 | 65 | 135 | 0.9 | 3.5 | 0.00 | 0.00 | 0.00 | 62 | 991.1 |
| 20260505205051 | 65 | 157 | 2.6 | 2.6 | 0.00 | 0.00 | 0.00 | 60 | 991.1 |
| 20260505204551 | 66 | 180 | 0.0 | 4.3 | 0.00 | 0.00 | 0.00 | 59 | 991.1 |
| 20260505204051 | 66 | 202 | 4.3 | 4.3 | 0.00 | 0.00 | 0.00 | 54 | 991.0 |
| 20260505203550 | 66 | 157 | 0.0 | 0.0 | 0.00 | 0.00 | 0.00 | 52 | 991.0 |
| 20260505203050 | 66 | 180 | 0.0 | 0.0 | 0.00 | 0.00 | 0.00 | 46 | 991.1 |
| 20260505202550 | 66 | 157 | 0.0 | 6.1 | 0.00 | 0.00 | 0.00 | 46 | 990.9 |
| 20260505202050 | 67 | 0 | 0.0 | 0.0 | 0.00 | 0.00 | 0.00 | 43 | 990.9 |
| 20260505201549 | 67 | 292 | 0.0 | 0.0 | 0.00 | 0.00 | 0.00 | 41 | 990.9 |
| 20260505201050 | 67 | 45 | 0.0 | 1.7 | 0.00 | 0.00 | 0.00 | 38 | 990.9 |
| 20260505200549 | 67 | 22 | 1.7 | 1.7 | 0.00 | 0.00 | 0.00 | 37 | 991.0 |
| 20260505200048 | 66 | 22 | 1.7 | 1.7 | 0.00 | 0.00 | 0.00 | 37 | 990.8 |
| 20260505195548 | 66 | 0 | 0.0 | 0.0 | 0.00 | 0.00 | 0.00 | 38 | 990.6 |
| 20260505195048 | 67 | 90 | 0.0 | 0.0 | 0.00 | 0.00 | 0.00 | 36 | 990.5 |
| 20260505194548 | 67 | 90 | 0.0 | 0.0 | 0.00 | 0.00 | 0.00 | 35 | 990.4 |
| 20260505194047 | 67 | 90 | 0.0 | 0.0 | 0.00 | 0.00 | 0.00 | 35 | 990.4 |
| 20260505193547 | 68 | 90 | 0.0 | 0.0 | 0.00 | 0.00 | 0.00 | 35 | 990.4 |
| 20260505193049 | 68 | 90 | 0.0 | 0.0 | 0.00 | 0.00 | 0.00 | 35 | 990.5 |
| 20260505192546 | 68 | 90 | 0.0 | 0.0 | 0.00 | 0.00 | 0.00 | 34 | 990.4 |
| 20260505192046 | 69 | 90 | 0.0 | 0.0 | 0.00 | 0.00 | 0.00 | 34 | 990.4 |
| 20260505191546 | 69 | 90 | 0.0 | 0.0 | 0.00 | 0.00 | 0.00 | 34 | 990.4 |
| 20260505191046 | 69 | 90 | 0.0 | 0.0 | 0.00 | 0.00 | 0.00 | 34 | 990.5 |
| 20260505190545 | 69 | 90 | 0.0 | 0.0 | 0.00 | 0.00 | 0.00 | 34 | 990.4 |
| 20260505190045 | 69 | 90 | 0.0 | 0.0 | 0.00 | 0.00 | 0.00 | 33 | 990.5 |
| 20260505185545 | 70 | 90 | 0.0 | 0.0 | 0.00 | 0.00 | 0.00 | 33 | 990.4 |
| 20260505185044 | 70 | 90 | 0.0 | 0.0 | 0.00 | 0.00 | 0.00 | 33 | 990.3 |
| 20260505184544 | 70 | 90 | 0.0 | 0.0 | 0.00 | 0.00 | 0.00 | 33 | 990.6 |
| 20260505184044 | 70 | 90 | 0.0 | 0.0 | 0.00 | 0.00 | 0.00 | 33 | 990.5 |
| 20260505183543 | 71 | 90 | 0.0 | 0.0 | 0.00 | 0.00 | 0.00 | 32 | 990.5 |
| 20260505183043 | 71 | 90 | 0.0 | 0.0 | 0.00 | 0.00 | 0.00 | 32 | 990.5 |
| 20260505182543 | 71 | 90 | 0.0 | 0.0 | 0.00 | 0.00 | 0.00 | 32 | 990.4 |
| 20260505182043 | 71 | 90 | 0.0 | 0.0 | 0.00 | 0.00 | 0.00 | 32 | 990.3 |
| 20260505181542 | 72 | 90 | 0.0 | 0.0 | 0.00 | 0.00 | 0.00 | 31 | 990.4 |
| 20260505181042 | 73 | 90 | 0.0 | 0.0 | 0.00 | 0.00 | 0.00 | 30 | 990.3 |
| 20260505180542 | 73 | 90 | 0.0 | 0.0 | 0.00 | 0.00 | 0.00 | 30 | 990.3 |